Tracking 19908 objects as of 19-Oct-2019
HD Live streaming from Space Station
objects crossing your sky now

THORAD DELTA 1 DEB

Track THORAD DELTA 1 DEB now!
10-day predictions


NORAD ID: 8404
Int'l Code: 1974-089CG
Perigee: 1,238.9 km
Apogee: 1,336.7 km
Inclination: 101.3 °
Period: 111.2 minutes
Semi major axis: 7658 km
RCS: 0.0827 m2 (small)
Launch date: November 15, 1974
Source: United States (US)
Launch site: AIR FORCE WESTERN TEST RANGE (AFWTR)

Note: This is SATELLITE DEBRIS
aabbcc
Your satellite tracking list
Your tracking list is empty




NASA's NSSDC Master Catalog

Two Line Element Set (TLE):
1  8404U 74089CG  19291.33668907 +.00001577 +00000-0 +57154-2 0  9992
2  8404 101.2540 229.3773 0063878 102.1941 051.5407 12.95279332081031
Source of the keplerian elements: AFSPC